This is the latest recevied weather packets stored in our database for station/object G6UYG-13. If no packets are shown the sender has not sent any weather packets the latest 10 day(s).
| Time | Temp. | Humidity | Pressure | Rain* | Wind** | Luminosity | Snow |
|---|---|---|---|---|---|---|---|
| 1777458665 | 15.56° C | 55% | 1024.4 hPa | 0 mm | - | 726 W/m² | - |
| 1777458245 | 15.56° C | 53% | 1024.4 hPa | 0 mm | - | 719 W/m² | - |
| 1777457825 | 15.56° C | 56% | 1024.5 hPa | 0 mm | - | 705 W/m² | - |
| 1777457405 | 15° C | 59% | 1024.5 hPa | 0 mm | - | 696 W/m² | - |
| 1777456985 | 15° C | 60% | 1024.6 hPa | 0 mm | - | 691 W/m² | - |
| 1777456565 | 14.44° C | 61% | 1024.5 hPa | 0 mm | - | 675 W/m² | - |
| 1777456145 | 14.44° C | 60% | 1024.6 hPa | 0 mm | - | 659 W/m² | - |
| 1777455725 | 14.44° C | 60% | 1024.7 hPa | 0 mm | - | 650 W/m² | - |
| 1777455305 | 14.44° C | 61% | 1024.7 hPa | 0 mm | - | 643 W/m² | - |
| 1777454885 | 13.89° C | 62% | 1024.7 hPa | 0 mm | - | 631 W/m² | - |
| 1777454465 | 13.89° C | 63% | 1024.7 hPa | 0 mm | - | 619 W/m² | - |
| 1777454045 | 13.89° C | 62% | 1024.7 hPa | 0 mm | - | 605 W/m² | - |
| 1777453625 | 13.33° C | 63% | 1024.8 hPa | 0 mm | - | 589 W/m² | - |
| 1777453205 | 13.33° C | 64% | 1024.9 hPa | 0 mm | - | 571 W/m² | - |
| 1777452785 | 12.78° C | 65% | 1025 hPa | 0 mm | - | 561 W/m² | - |
| 1777452365 | 12.78° C | 66% | 1025 hPa | 0 mm | - | 545 W/m² | - |
| 1777451945 | 12.22° C | 66% | 1025.1 hPa | 0 mm | - | 529 W/m² | - |
| 1777451525 | 12.22° C | 67% | 1025.2 hPa | 0 mm | - | 512 W/m² | - |
| 1777451106 | 12.22° C | 67% | 1025.3 hPa | 0 mm | - | 496 W/m² | - |
| 1777450685 | 12.22° C | 69% | 1025.2 hPa | 0 mm | - | 476 W/m² | - |
| 1777450265 | 12.22° C | 70% | 1025.2 hPa | 0 mm | - | 462 W/m² | - |
| 1777449845 | 12.22° C | 70% | 1025.3 hPa | 0 mm | - | 446 W/m² | - |
| 1777449425 | 11.67° C | 70% | 1025.5 hPa | 0 mm | - | 425 W/m² | - |
| 1777449005 | 11.67° C | 71% | 1025.5 hPa | 0 mm | - | 408 W/m² | - |
| 1777448586 | 11.11° C | 72% | 1025.5 hPa | 0 mm | - | 388 W/m² | - |
* Rain latest hour (hover to see other rain measurements)
** Current wind speed in m/s (hover to see current wind gust speed)